SCP
0 0 0 0 0 0 0 0 0 0 0 0 0 0 0 0 0 0 0 0 0 0 0 0 0 0 0 0 0 0 0 0 0 0 0 0 0 0 0 0 0 0 0 0 0 0 0 0 0
0 0 0 0 0 0 0 0 0 0 0 0 0 0 0 0 0 0 0 0 0 0 0 0 0 0 0 0 0 0 0 0 0 0 0 0 0 0 0 0 0 0 0 0 0 0 0 0 0
0 0 0 0 0 0 0 0 0 0 0 0 0 0 0 0 0 0 0 0 0 0 0 0 0 0 0 0 0 0 0 0 0 0 0 0 0 0 0 0 0 0 0 0 0 0 0 0 0
0 0 0 0 0 0 0 0 0 0 0 0 0 0 0 0 0 0 0 0 0 0 0 0 0 0 0 0 0 0 0 0 0 0 0 0 0 0 0 0 0 0 0 0 0 0 0 0 0
0 0 0 0 0 0 0 0 0 0 0 0 0 0 0 0 0 0 0 0 0 0 0 0 0 0 0 0 0 0 0 0 0 0 0 0 0 0 0 0 0 0 0 0 0 0 0 0 0
0 0 0 0 0 0 0 0 0 0 0 0 0 0 0 0 0 0 0 0 0 0 0 0 0 0 0 0 0 0 0 0 0 0 0 0 0 0 0 0 0 0 0 0 0 0 0 0 0
0 0 0 0 0 0 0 0 0 0 0 0 0 0 0 0 0 0 0 0 0 0 0 0 0 0 0 0 0 0 0 0 0 0 0 0 0 0 0 0 0 0 0 0 0 0 0 0 0
0 0 0 0 0 0 0 0 0 0 0 0 0 0 0 0 0 0 0 0 0 0 0 0 0 0 0 0 0 0 0 0 0 0 0 0 0 0 0 0 0 0 0 0 0 0 0 0 0
0 0 0 0 0 0 0 0 0 0 0 0 0 1 1 0 0 0 0 1 1 0 0 0 0 0 0 0 0 0 0 0 0 0 0 0 0 0 0 0 0 0 0 0 0 0 0 0 0
0 0 0 0 0 0 0 0 0 0 0 0 1 1 1 1 0 0 1 1 1 1 0 0 0 0 0 0 0 0 0 0 0 0 0 -0 -0 0 0 0 0 0 0 0 0 0 0 0 0
0 0 0 0 0 0 0 0 0 0 0 0 1 1 1 1 1 1 1 1 1 1 0 0 0 0 0 0 0 0 0 0 0 0 0 0 0 0 0 0 0 0 0 0 0 0 0 0 0
0 0 0 0 0 0 0 0 0 0 0 0 1 1 1 1 1 1 1 1 1 1 1 1 0 0 0 0 0 0 0 0 0 0 0 0 0 0 0 0 0 0 0 0 0 0 0 0 0
0 0 0 0 0 0 0 0 0 0 0 1 1 1 1 1 1 1 1 1 1 1 1 1 1 1 1 0 0 0 0 0 0 0 0 0 0 0 0 0 0 0 0 0 0 0 0 0 0
0 0 0 0 0 0 0 0 0 0 0 1 1 1 1 1 1 1 1 1 1 1 1 1 1 1 1 1 0 0 0 0 0 0 0 0 0 0 0 0 0 0 0 0 0 0 0 0 0
0 0 0 0 0 0 0 0 0 0 0 0 1 1 1 1 1 1 1 2 1 1 1 1 1 1 1 1 1 0 0 0 0 0 0 0 0 0 0 0 0 0 0 0 0 0 0 0 0
0 0 0 0 0 0 0 0 0 0 0 0 1 1 1 1 1 1 2 2 2 1 1 1 1 1 1 1 1 1 1 1 1 1 1 0 0 0 0 0 0 0 0 0 0 0 0 0 0
0 0 0 0 0 0 0 0 0 0 0 0 1 1 1 1 2 2 2 2 2 2 2 1 1 1 1 1 1 1 1 1 1 1 1 1 1 0 0 0 0 0 0 0 0 0 0 0 0
0 0 0 0 0 0 0 0 0 0 0 0 1 1 1 2 2 2 2 2 2 2 2 2 1 1 1 1 1 1 1 1 1 1 1 1 1 1 0 0 0 0 0 0 0 0 0 0 0
0 0 0 0 0 0 0 0 0 0 0 0 1 1 2 2 2 2 2 2 2 2 2 2 2 1 1 1 1 1 1 1 1 1 1 1 1 1 1 0 0 0 0 0 0 0 0 0 0
0 0 0 0 0 0 0 0 0 0 0 0 1 1 2 2 2 2 2 2 2 2 2 2 2 2 1 1 1 1 1 1 1 1 1 1 1 1 1 1 0 0 0 0 0 0 0 0 0
0 0 0 0 0 0 0 0 0 0 0 0 1 1 1 2 3 3 2 2 2 2 2 2 2 2 2 1 1 1 1 1 1 1 1 1 1 1 1 1 1 0 0 0 0 0 0 0 0
0 0 0 0 0 0 0 0 0 0 0 0 1 1 1 2 3 3 3 2 2 2 2 2 2 2 2 1 1 1 1 1 1 1 1 1 1 1 1 1 1 1 0 0 0 0 0 0 0
0 0 0 0 0 0 0 0 0 0 0 0 0 1 1 2 2 3 3 3 2 2 2 2 2 2 2 2 1 1 1 1 1 1 1 1 1 1 1 1 1 1 1 0 0 0 0 0 0
0 0 0 0 0 0 0 0 0 0 0 0 0 1 1 2 2 3 3 3 2 2 2 2 2 2 2 1 1 1 1 1 1 1 1 1 1 1 1 1 1 1 1 1 1 1 0 0 0
0 0 0 0 0 0 0 0 0 0 0 0 0 1 1 1 2 3 3 3 2 2 2 2 2 2 2 1 1 1 1 1 1 1 1 1 1 1 1 1 1 1 1 1 1 1 1 0 0
0 0 0 0 0 0 0 0 0 0 0 0 0 1 1 1 2 2 3 3 2 2 2 2 2 2 2 1 1 1 1 1 1 1 1 1 1 1 1 1 1 1 1 1 1 1 1 1 1
0 0 0 0 0 0 0 0 0 0 0 0 0 1 1 1 2 2 2 2 2 2 2 2 2 2 2 2 1 1 1 1 1 1 1 1 1 1 1 1 1 1 1 1 1 1 1 1 1
0 0 0 0 0 0 0 0 0 0 0 0 0 1 1 1 1 2 2 2 2 2 2 2 2 2 2 2 1 1 1 1 1 1 1 1 1 1 1 1 1 1 1 1 1 1 1 1 1
0 0 0 0 0 0 0 0 0 0 0 0 0 1 1 1 1 1 2 2 2 2 2 2 2 2 2 1 1 1 1 1 1 1 1 1 1 1 1 1 1 1 1 1 1 1 1 1 1
0 0 0 0 0 0 0 0 0 0 0 0 1 1 1 1 1 1 1 2 2 2 2 2 2 2 2 1 1 1 1 1 1 1 1 1 1 1 1 1 1 1 1 1 1 1 1 1 1
Wind_Speed
10 13 11 8 4 4 2 7 12 12 13 13 13 15 19 15 12 13 15 22 23 19 17 16 15 15 15 15 15 16 16 16 16 16 16 16 16 16 16 17 16 16 16 16 15 15 15 14 13
11 14 10 6 4 3 3 9 13 12 11 10 13 17 18 17 16 16 18 22 22 19 16 16 16 16 15 15 15 15 15 15 15 15 15 15 15 16 16 16 16 16 15 15 15 14 14 13 12
14 18 8 7 7 3 5 10 11 10 9 10 13 16 14 13 15 16 19 22 20 19 17 17 17 16 15 15 14 14 15 15 15 15 14 14 15 15 15 15 15 15 15 14 14 14 13 12 10
10 9 8 9 6 3 7 9 8 9 9 9 13 13 13 11 13 18 20 22 21 20 18 17 17 16 15 15 14 14 14 14 14 14 14 14 14 15 15 15 14 14 14 14 14 13 12 11 9
11 8 10 10 5 6 7 8 7 7 7 10 15 15 13 12 18 19 19 20 20 20 18 17 16 16 15 15 14 14 14 14 14 13 13 13 13 14 15 14 14 14 14 13 13 12 11 9 7
9 10 10 8 3 5 6 6 5 9 8 11 15 16 12 13 16 17 17 18 20 20 18 16 16 16 15 14 14 13 13 13 13 13 13 13 13 13 14 14 13 13 13 12 12 11 10 8 5
11 12 13 11 3 5 6 5 4 6 8 8 12 15 12 14 14 15 15 17 20 21 18 15 14 14 14 14 14 13 13 13 13 13 13 13 13 13 13 13 13 12 12 12 11 10 9 7 3
11 12 16 11 3 5 7 5 5 7 8 7 9 12 14 17 16 15 15 16 17 18 17 16 14 13 12 12 13 13 13 13 12 12 12 13 13 13 13 12 11 12 11 11 10 9 7 5 2
14 12 13 10 2 6 8 6 7 7 8 7 9 15 20 21 18 16 14 15 14 15 14 15 15 13 12 12 13 12 12 12 11 10 12 10 8 9 8 12 11 11 10 9 9 8 6 5 3
11 11 14 6 4 3 6 6 6 6 8 10 16 19 22 20 18 17 15 16 15 14 14 13 14 13 12 11 10 8 8 8 6 6 7 5 3 5 9 11 11 10 9 8 7 6 6 5 3
14 15 12 7 3 2 3 5 6 7 7 9 17 21 20 20 18 16 14 14 14 13 12 13 11 9 10 9 8 5 4 6 5 6 5 4 4 5 7 5 6 6 7 5 6 5 4 3 1
15 14 12 7 2 3 3 3 4 6 8 11 15 22 21 20 18 16 14 14 14 12 12 13 11 7 7 8 7 6 5 5 4 5 5 4 2 3 4 3 4 4 3 3 3 2 2 1 1
15 14 12 8 6 5 5 5 3 5 12 15 18 20 20 19 17 16 15 14 13 11 11 11 9 8 6 5 5 6 5 6 6 5 4 5 3 3 3 2 2 3 3 3 1 2 2 2 1
13 13 13 10 9 7 8 8 6 7 12 15 17 18 18 18 18 17 15 14 14 12 12 11 10 8 6 5 2 4 4 4 5 5 5 4 3 3 3 3 2 1 2 2 2 3 3 2 1
14 13 14 13 12 11 10 11 10 9 11 15 17 16 17 17 17 17 15 14 15 13 12 11 10 9 7 6 5 4 4 5 4 4 5 4 4 4 3 3 2 2 2 2 1 2 2 2 2
14 15 15 15 15 13 12 11 10 12 12 13 15 16 16 15 16 16 15 13 13 13 12 11 12 11 8 6 4 3 4 4 4 5 4 4 4 4 3 3 3 3 3 3 2 1 2 2 2
15 16 16 15 16 13 13 11 10 13 13 13 14 15 16 16 16 15 16 15 13 12 12 11 9 12 9 7 4 3 3 3 4 5 4 4 5 4 3 2 3 3 2 2 3 2 2 2 1
15 17 17 16 15 14 13 12 12 12 14 14 14 15 16 17 16 16 16 15 13 12 12 10 9 10 9 7 4 3 4 3 3 4 5 6 4 4 3 3 3 2 2 2 2 3 2 1 2
17 15 14 14 12 12 12 12 12 12 13 13 12 12 14 16 17 16 16 15 15 13 12 11 10 10 8 6 6 5 5 4 3 4 6 6 5 5 3 3 4 2 2 2 3 2 3 2 2
19 17 14 9 8 8 9 11 12 11 12 12 12 14 16 17 17 17 16 15 15 14 13 12 11 11 10 6 5 4 5 4 4 3 5 6 5 5 5 3 3 3 2 2 2 2 1 2 2
18 16 14 11 8 9 9 13 13 11 11 12 13 14 16 18 19 18 17 16 16 15 15 13 12 11 10 8 6 5 4 3 4 5 5 5 6 5 3 5 3 3 3 3 3 3 3 1 1
15 15 14 12 10 8 12 11 13 13 12 12 13 13 14 17 19 18 17 16 16 15 14 12 12 11 10 9 8 8 7 6 5 5 5 6 6 6 5 5 4 3 3 4 4 4 3 2 2
14 13 13 13 12 11 13 13 10 12 12 12 13 14 14 15 19 19 18 17 16 15 14 12 12 11 11 10 9 8 7 6 4 5 7 6 6 6 6 5 4 4 3 4 3 3 3 2 2
13 13 11 12 12 15 15 14 11 10 13 13 13 13 14 15 17 18 17 16 14 14 14 13 13 11 11 11 10 9 8 7 7 7 7 6 5 5 6 6 5 5 4 3 3 3 4 3 2
15 12 9 10 11 13 14 15 9 8 13 15 15 13 14 14 15 16 17 16 15 15 14 13 13 12 12 12 10 10 8 7 7 7 7 7 6 6 6 6 5 5 4 4 4 4 3 4 4
17 17 12 10 11 12 14 13 10 11 10 12 12 11 11 14 14 16 16 16 15 15 14 13 13 12 12 12 10 9 8 7 6 7 7 7 5 6 7 7 6 6 6 6 5 4 5 4 4
19 18 17 13 12 10 11 13 9 7 8 9 11 12 11 12 14 15 16 16 15 15 14 14 13 12 12 11 10 9 9 8 7 7 6 5 5 5 7 8 7 6 6 5 5 4 4 4 4
18 16 12 13 11 12 10 12 10 11 10 9 10 11 12 12 13 14 12 14 13 13 13 12 12 11 11 10 9 9 9 8 7 6 7 6 6 5 6 7 7 6 6 6 5 5 5 5 5
19 19 15 12 12 12 8 5 6 9 10 11 11 11 12 12 13 14 13 13 13 12 12 11 11 10 10 10 9 8 8 8 8 7 7 6 5 6 6 7 7 7 6 6 6 6 6 6 6
17 18 17 12 12 11 8 4 2 8 9 8 9 10 11 11 11 12 13 13 12 12 11 11 10 10 10 9 8 8 8 8 8 8 7 7 7 6 6 7 7 7 7 7 7 7 7 7 7
Wind_Direction
246 249 241 255 257 265 303 69 73 71 66 60 58 69 68 61 73 94 114 113 114 116 119 117 113 112 109 108 105 103 103 102 100 99 98 98 98 98 98 98 99 99 97 96 96 96 96 95 95
265 258 248 247 253 264 87 80 78 76 78 78 70 74 77 75 89 109 116 115 118 121 124 118 117 115 112 110 108 106 105 104 102 101 100 100 100 100 100 100 100 100 99 99 98 99 98 98 98
265 266 262 247 239 232 91 83 89 89 84 83 76 66 66 86 100 112 120 122 121 120 116 119 121 117 115 112 110 109 107 105 104 102 101 101 101 101 102 102 102 101 100 100 99 99 98 98 98
258 249 239 253 250 123 91 94 99 98 92 93 91 81 76 82 107 120 128 125 123 121 119 123 123 120 118 116 113 112 110 108 106 104 104 103 103 103 103 103 103 102 101 99 99 98 99 99 98
247 261 256 266 267 94 97 94 102 101 94 89 94 95 89 95 115 128 132 129 127 121 123 126 126 123 122 120 117 116 114 112 111 109 107 106 105 104 104 104 103 103 102 101 100 99 102 101 95
255 249 259 264 230 112 101 105 117 106 101 107 109 105 102 116 125 137 134 131 125 124 124 127 128 127 126 124 121 119 118 117 114 113 111 110 109 107 106 107 106 104 103 103 103 103 103 103 99
260 275 275 269 207 134 112 116 116 109 100 98 109 108 122 132 138 139 131 128 126 124 128 136 135 132 130 128 127 124 123 121 120 119 117 116 115 114 112 110 109 108 108 107 108 107 108 108 107
260 281 285 273 224 133 124 129 117 107 105 114 119 122 139 142 148 138 132 125 126 129 136 140 141 140 140 135 133 131 130 129 128 128 128 125 124 122 122 118 114 114 113 114 115 117 120 126 133
253 264 272 274 180 134 135 145 129 129 128 112 82 116 137 146 148 141 136 129 129 132 138 141 143 151 149 143 138 139 137 136 138 139 140 144 144 135 137 118 123 123 124 125 128 133 139 155 183
238 254 263 308 24 111 137 155 149 149 128 109 100 112 134 147 150 150 149 143 139 139 143 143 148 157 154 143 143 153 151 150 159 149 158 173 145 134 123 127 133 137 139 143 150 158 169 195 190
235 250 277 313 356 342 159 167 172 162 149 143 134 137 148 152 154 156 156 148 142 149 148 143 151 155 148 137 156 154 143 150 161 158 165 161 142 133 129 141 144 153 163 172 162 185 211 206 203
237 254 270 286 310 275 264 194 189 167 137 137 143 146 154 158 160 161 158 149 148 156 152 146 147 145 144 144 146 149 149 154 156 166 172 148 148 143 142 150 163 172 175 169 173 175 156 163 122
233 248 255 260 260 243 256 235 212 149 127 136 144 150 159 163 162 162 160 155 155 158 150 141 145 140 136 127 158 157 156 155 154 161 164 156 157 143 135 136 156 176 156 154 159 127 121 97 56
243 245 252 247 241 232 234 232 211 167 144 144 148 155 165 166 164 164 164 160 161 163 154 147 151 139 136 142 167 139 143 136 151 154 153 166 143 128 135 146 150 153 133 132 153 136 131 118 90
254 252 249 240 231 227 229 230 212 184 164 156 158 163 167 168 167 168 167 163 165 165 155 152 154 146 151 159 176 157 150 157 150 131 142 158 139 141 157 146 159 151 130 118 116 131 135 143 131
239 241 243 235 223 217 220 232 211 184 180 170 167 166 166 167 170 169 165 164 163 163 157 163 167 156 161 163 186 167 163 149 139 138 150 155 142 162 172 156 161 160 156 148 144 155 115 101 112
231 232 234 232 217 209 210 230 223 183 181 179 175 168 167 168 172 167 166 167 164 161 159 168 164 157 165 164 181 174 146 143 146 148 154 156 162 171 182 148 140 172 166 157 173 136 126 131 131
221 223 228 228 209 203 211 217 220 191 184 186 180 173 169 172 174 168 168 167 164 162 161 168 162 159 162 163 176 176 164 164 164 147 152 157 170 179 182 155 152 182 155 138 110 123 131 155 174
250 245 240 227 205 197 213 220 219 201 191 189 178 172 174 174 171 167 168 167 167 165 165 169 169 163 167 171 179 180 177 180 173 161 156 164 177 176 199 158 154 191 158 158 156 147 166 198 166
249 255 253 242 201 193 219 229 229 212 198 189 181 177 178 173 168 167 168 170 171 170 170 172 173 171 177 176 176 181 170 180 176 168 157 172 178 176 188 157 176 170 159 167 157 157 179 208 173
234 245 249 247 216 199 225 239 233 220 213 195 189 185 180 173 171 170 173 175 176 176 176 178 176 175 180 171 175 182 159 188 173 160 168 181 179 186 195 168 184 169 180 175 185 179 192 212 198
233 237 246 246 236 218 217 236 222 216 213 206 196 189 186 175 170 172 175 177 180 178 177 175 175 176 178 175 183 183 182 192 186 171 170 180 186 190 192 180 181 185 188 165 198 191 192 198 217
236 237 240 246 248 243 230 237 232 207 207 211 203 191 184 179 172 173 177 178 179 177 177 176 175 177 178 184 190 190 193 192 183 172 169 179 186 195 195 183 180 192 201 174 186 162 191 201 213
231 236 237 243 247 239 238 245 240 207 198 202 204 195 184 181 172 170 173 171 175 176 177 177 176 178 181 188 192 197 200 193 189 179 174 183 182 196 201 187 184 193 198 183 184 183 195 208 221
218 219 213 219 228 237 236 240 236 213 191 194 196 193 185 176 167 166 168 169 173 176 177 175 175 180 183 191 196 197 201 197 196 185 184 190 188 192 195 194 185 193 194 193 188 192 206 199 199
211 219 219 216 222 230 229 233 228 204 191 183 180 182 180 172 165 167 168 169 174 176 174 175 177 181 184 190 194 194 196 199 201 197 192 196 199 191 183 185 186 192 195 201 190 199 204 200 201
213 219 230 241 257 255 230 220 220 193 190 180 173 174 178 172 168 167 170 171 174 175 175 179 178 181 185 189 190 192 192 200 204 192 194 198 197 192 179 183 185 190 196 201 187 206 210 189 199
230 218 227 239 251 258 242 212 202 177 193 188 174 170 169 172 169 165 169 168 170 171 172 176 177 182 185 187 191 192 193 197 196 194 198 198 197 195 179 183 186 192 196 198 199 208 206 201 202
217 221 223 232 243 251 254 246 204 171 186 185 176 168 168 173 169 166 167 167 165 167 169 172 176 179 183 188 193 193 190 194 196 200 197 195 195 191 191 190 190 194 202 201 202 211 206 205 210
221 223 220 227 237 251 257 256 253 176 175 175 170 170 170 169 167 163 163 161 164 166 166 170 176 181 185 188 190 194 193 195 198 201 198 193 196 197 196 194 197 201 203 203 206 216 212 209 210